Time,TemperatureF,DewpointF,PressureIn,WindDirection,WindDirectionDegrees,WindSpeedMPH,WindSpeedGustMPH,Humidity,HourlyPrecipIn,Conditions,Clouds,dailyrainin,SolarRadiationWatts/m^2,SoftwareType,DateUTC
2013-03-20 00:22:00,48.0,40.0,-100.00,SSW,199,13.0,24.0,74,0.01,,,0.05,1.000000,,2013-03-20 07:22:00,
2013-03-20 00:32:00,48.0,40.0,-100.00,SSW,199,13.0,24.0,74,0.01,,,0.05,1.000000,,2013-03-20 07:32:00,
2013-03-20 01:02:00,49.0,38.0,-100.00,South,175,21.0,35.0,66,0.00,,,-99.99,1.000000,,2013-03-20 08:02:00,
2013-03-20 01:32:00,49.0,38.0,-100.00,South,175,21.0,35.0,66,0.00,,,-99.99,1.000000,,2013-03-20 08:32:00,
2013-03-20 01:42:00,49.0,38.0,-100.00,South,175,21.0,35.0,66,0.00,,,-99.99,1.000000,,2013-03-20 08:42:00,
2013-03-20 01:52:00,49.0,38.0,-100.00,South,175,21.0,35.0,66,0.00,,,-99.99,1.000000,,2013-03-20 08:52:00,
2013-03-20 02:02:00,49.0,37.0,-100.00,SSE,168,20.0,32.0,64,0.00,,,0.05,1.000000,,2013-03-20 09:02:00,
2013-03-20 02:33:00,49.0,37.0,-100.00,SSE,168,20.0,32.0,64,0.00,,,0.05,1.000000,,2013-03-20 09:33:00,
2013-03-20 02:43:00,49.0,37.0,-100.00,SSE,168,20.0,32.0,64,0.00,,,0.05,1.000000,,2013-03-20 09:43:00,
2013-03-20 02:53:00,49.0,37.0,-100.00,SSE,168,20.0,32.0,64,0.00,,,0.05,1.000000,,2013-03-20 09:53:00,
2013-03-20 03:02:00,48.0,38.0,-100.00,South,182,13.0,29.0,67,0.00,,,0.05,1.000000,,2013-03-20 10:02:00,
2013-03-20 03:33:00,48.0,38.0,-100.00,South,182,13.0,29.0,67,0.00,,,0.05,1.000000,,2013-03-20 10:33:00,
2013-03-20 03:43:00,48.0,38.0,-100.00,South,182,13.0,29.0,67,0.00,,,0.05,1.000000,,2013-03-20 10:43:00,
2013-03-20 03:53:00,48.0,38.0,-100.00,South,182,13.0,29.0,67,0.00,,,0.05,1.000000,,2013-03-20 10:53:00,
2013-03-20 04:02:00,48.0,38.0,-100.00,South,185,17.0,29.0,68,0.00,,,0.05,1.000000,,2013-03-20 11:02:00,
2013-03-20 04:32:00,48.0,38.0,-100.00,South,185,17.0,29.0,68,0.00,,,0.05,1.000000,,2013-03-20 11:32:00,
2013-03-20 04:42:00,48.0,38.0,-100.00,South,185,17.0,29.0,68,0.00,,,0.05,1.000000,,2013-03-20 11:42:00,
2013-03-20 04:52:00,48.0,38.0,-100.00,South,185,17.0,29.0,68,0.00,,,0.05,1.000000,,2013-03-20 11:52:00,
2013-03-20 05:02:00,47.0,37.0,-100.00,South,179,19.0,27.0,69,0.00,,,0.05,1.000000,,2013-03-20 12:02:00,
2013-03-20 05:33:00,47.0,37.0,-100.00,South,179,19.0,27.0,69,0.00,,,0.05,1.000000,,2013-03-20 12:33:00,
2013-03-20 05:42:00,47.0,37.0,-100.00,South,179,19.0,27.0,69,0.00,,,0.05,1.000000,,2013-03-20 12:42:00,
2013-03-20 05:52:00,47.0,37.0,-100.00,South,179,19.0,27.0,69,0.00,,,0.05,1.000000,,2013-03-20 12:52:00,
2013-03-20 06:02:00,47.0,37.0,-100.00,South,183,18.0,29.0,67,0.00,,,0.05,1.000000,,2013-03-20 13:02:00,
2013-03-20 06:32:00,47.0,37.0,-100.00,South,183,18.0,29.0,67,0.00,,,0.05,1.000000,,2013-03-20 13:32:00,
2013-03-20 06:42:00,47.0,37.0,-100.00,South,183,18.0,29.0,67,0.00,,,0.05,1.000000,,2013-03-20 13:42:00,
2013-03-20 06:53:00,47.0,37.0,-100.00,South,183,18.0,29.0,67,0.00,,,0.05,1.000000,,2013-03-20 13:53:00,
2013-03-20 07:02:00,47.0,36.0,-100.00,South,182,19.0,34.0,66,0.00,,,0.05,1.000000,,2013-03-20 14:02:00,
2013-03-20 07:23:00,47.0,36.0,-100.00,South,182,19.0,34.0,66,0.00,,,0.05,1.000000,,2013-03-20 14:23:00,
2013-03-20 07:34:00,47.0,36.0,-100.00,South,182,19.0,34.0,66,0.00,,,0.05,1.000000,,2013-03-20 14:34:00,
2013-03-20 07:43:00,47.0,36.0,-100.00,South,182,19.0,34.0,66,0.00,,,0.05,1.000000,,2013-03-20 14:43:00,
2013-03-20 07:52:00,47.0,36.0,-100.00,South,182,19.0,34.0,66,0.00,,,0.05,1.000000,,2013-03-20 14:52:00,
2013-03-20 08:02:00,48.0,36.0,-100.00,South,184,18.0,33.0,64,0.00,,,0.05,23.000000,,2013-03-20 15:02:00,
2013-03-20 08:33:00,48.0,36.0,-100.00,South,184,18.0,33.0,64,0.00,,,0.05,23.000000,,2013-03-20 15:33:00,
2013-03-20 08:43:00,48.0,36.0,-100.00,South,184,18.0,33.0,64,0.00,,,0.05,23.000000,,2013-03-20 15:43:00,
2013-03-20 08:53:00,48.0,36.0,-100.00,South,184,18.0,33.0,64,0.00,,,0.05,23.000000,,2013-03-20 15:53:00,
2013-03-20 09:02:00,49.0,37.0,-100.00,South,189,18.0,30.0,63,0.00,,,0.05,184.000000,,2013-03-20 16:02:00,
2013-03-20 09:23:00,49.0,37.0,-100.00,South,189,18.0,30.0,63,0.00,,,0.05,184.000000,,2013-03-20 16:23:00,
2013-03-20 09:33:00,49.0,37.0,-100.00,South,189,18.0,30.0,63,0.00,,,0.05,184.000000,,2013-03-20 16:33:00,
2013-03-20 09:43:00,49.0,37.0,-100.00,South,189,18.0,30.0,63,0.00,,,0.05,184.000000,,2013-03-20 16:43:00,
2013-03-20 09:53:00,49.0,37.0,-100.00,South,189,18.0,30.0,63,0.00,,,0.05,184.000000,,2013-03-20 16:53:00,
2013-03-20 10:02:00,50.0,38.0,-100.00,SSW,204,21.0,34.0,63,0.00,,,0.05,293.000000,,2013-03-20 17:02:00,
2013-03-20 10:33:00,50.0,38.0,-100.00,SSW,204,21.0,34.0,63,0.00,,,0.05,293.000000,,2013-03-20 17:33:00,
2013-03-20 10:42:00,50.0,38.0,-100.00,SSW,204,21.0,34.0,63,0.00,,,0.05,293.000000,,2013-03-20 17:42:00,
2013-03-20 10:53:00,50.0,38.0,-100.00,SSW,204,21.0,34.0,63,0.00,,,0.05,293.000000,,2013-03-20 17:53:00,
2013-03-20 11:34:00,45.0,39.0,-100.00,WSW,238,22.0,35.0,78,0.03,,,0.08,368.000000,,2013-03-20 18:34:00,
2013-03-20 11:43:00,45.0,39.0,-100.00,WSW,238,22.0,35.0,78,0.03,,,0.08,368.000000,,2013-03-20 18:43:00,
2013-03-20 11:52:00,45.0,39.0,-100.00,WSW,238,22.0,35.0,78,0.03,,,0.08,368.000000,,2013-03-20 18:52:00,
2013-03-20 12:01:00,45.0,39.0,-100.00,WSW,238,22.0,35.0,78,0.03,,,0.08,368.000000,,2013-03-20 19:01:00,
2013-03-20 12:02:00,40.0,36.0,-100.00,WSW,248,15.0,26.0,85,0.01,,,0.09,126.000000,,2013-03-20 19:02:00,
2013-03-20 12:32:00,40.0,36.0,-100.00,WSW,248,15.0,26.0,85,0.01,,,0.09,126.000000,,2013-03-20 19:32:00,
2013-03-20 12:42:00,40.0,36.0,-100.00,WSW,248,15.0,26.0,85,0.01,,,0.09,126.000000,,2013-03-20 19:42:00,
2013-03-20 12:53:00,40.0,36.0,-100.00,WSW,248,15.0,26.0,85,0.01,,,0.09,126.000000,,2013-03-20 19:53:00,
2013-03-20 13:32:00,43.0,35.0,-100.00,SW,233,17.0,30.0,72,0.00,,,0.09,404.000000,,2013-03-20 20:32:00,
2013-03-20 13:42:00,43.0,35.0,-100.00,SW,233,17.0,30.0,72,0.00,,,0.09,404.000000,,2013-03-20 20:42:00,
2013-03-20 13:52:00,43.0,35.0,-100.00,SW,233,17.0,30.0,72,0.00,,,0.09,404.000000,,2013-03-20 20:52:00,
2013-03-20 14:01:00,43.0,35.0,-100.00,SW,233,17.0,30.0,72,0.00,,,0.09,404.000000,,2013-03-20 21:01:00,
2013-03-20 14:02:00,46.0,32.0,-100.00,WSW,243,21.0,33.0,59,0.00,,,0.09,716.000000,,2013-03-20 21:02:00,
2013-03-20 14:33:00,46.0,32.0,-100.00,WSW,243,21.0,33.0,59,0.00,,,0.09,716.000000,,2013-03-20 21:33:00,
2013-03-20 14:42:00,46.0,32.0,-100.00,WSW,243,21.0,33.0,59,0.00,,,0.09,716.000000,,2013-03-20 21:42:00,
2013-03-20 14:52:00,46.0,32.0,-100.00,WSW,243,21.0,33.0,59,0.00,,,0.09,716.000000,,2013-03-20 21:52:00,
2013-03-20 15:02:00,46.0,30.0,-100.00,SW,236,20.0,34.0,53,0.00,,,0.09,619.000000,,2013-03-20 22:02:00,
2013-03-20 15:33:00,46.0,30.0,-100.00,SW,236,20.0,34.0,53,0.00,,,0.09,619.000000,,2013-03-20 22:33:00,
2013-03-20 15:43:00,46.0,30.0,-100.00,SW,236,20.0,34.0,53,0.00,,,0.09,619.000000,,2013-03-20 22:43:00,
2013-03-20 15:52:00,46.0,30.0,-100.00,SW,236,20.0,34.0,53,0.00,,,0.09,619.000000,,2013-03-20 22:52:00,
2013-03-20 16:02:00,41.0,30.0,-100.00,WSW,248,17.0,35.0,65,0.00,,,0.09,433.000000,,2013-03-20 23:02:00,
2013-03-20 16:23:00,41.0,30.0,-100.00,WSW,248,17.0,35.0,65,0.00,,,0.09,433.000000,,2013-03-20 23:23:00,
2013-03-20 16:33:00,41.0,30.0,-100.00,WSW,248,17.0,35.0,65,0.00,,,0.09,433.000000,,2013-03-20 23:33:00,
2013-03-20 16:43:00,41.0,30.0,-100.00,WSW,248,17.0,35.0,65,0.00,,,0.09,433.000000,,2013-03-20 23:43:00,
2013-03-20 16:52:00,41.0,30.0,-100.00,WSW,248,17.0,35.0,65,0.00,,,0.09,433.000000,,2013-03-20 23:52:00,
2013-03-20 17:02:00,41.0,28.0,-100.00,WSW,239,14.0,32.0,59,0.00,,,0.09,372.000000,,2013-03-21 00:02:00,
2013-03-20 17:33:00,41.0,28.0,-100.00,WSW,239,14.0,32.0,59,0.00,,,0.09,372.000000,,2013-03-21 00:33:00,
2013-03-20 17:42:00,41.0,28.0,-100.00,WSW,239,14.0,32.0,59,0.00,,,0.09,372.000000,,2013-03-21 00:42:00,
2013-03-20 17:52:00,41.0,28.0,-100.00,WSW,239,14.0,32.0,59,0.00,,,0.09,372.000000,,2013-03-21 00:52:00,
2013-03-20 18:02:00,39.0,27.0,-100.00,WSW,239,15.0,30.0,62,0.00,,,0.09,225.000000,,2013-03-21 01:02:00,
2013-03-20 18:33:00,39.0,27.0,-100.00,WSW,239,15.0,30.0,62,0.00,,,0.09,225.000000,,2013-03-21 01:33:00,
2013-03-20 18:42:00,39.0,27.0,-100.00,WSW,239,15.0,30.0,62,0.00,,,0.09,225.000000,,2013-03-21 01:42:00,
2013-03-20 18:52:00,39.0,27.0,-100.00,WSW,239,15.0,30.0,62,0.00,,,0.09,225.000000,,2013-03-21 01:52:00,
2013-03-20 19:02:00,35.0,27.0,-100.00,WSW,249,12.0,26.0,72,0.00,,,0.08,90.000000,,2013-03-21 02:02:00,
2013-03-20 19:33:00,35.0,27.0,-100.00,WSW,249,12.0,26.0,72,0.00,,,0.08,90.000000,,2013-03-21 02:33:00,
2013-03-20 19:42:00,35.0,27.0,-100.00,WSW,249,12.0,26.0,72,0.00,,,0.08,90.000000,,2013-03-21 02:42:00,
2013-03-20 19:52:00,35.0,27.0,-100.00,WSW,249,12.0,26.0,72,0.00,,,0.08,90.000000,,2013-03-21 02:52:00,
2013-03-20 20:02:00,33.0,25.0,-100.00,WSW,239,16.0,24.0,72,0.00,,,0.08,4.000000,,2013-03-21 03:02:00,
2013-03-20 20:33:00,33.0,25.0,-100.00,WSW,239,16.0,24.0,72,0.00,,,0.08,4.000000,,2013-03-21 03:33:00,
2013-03-20 20:43:00,33.0,25.0,-100.00,WSW,239,16.0,24.0,72,0.00,,,0.08,4.000000,,2013-03-21 03:43:00,
2013-03-20 20:53:00,33.0,25.0,-100.00,WSW,239,16.0,24.0,72,0.00,,,0.08,4.000000,,2013-03-21 03:53:00,
2013-03-20 21:02:00,31.0,25.0,-100.00,SSW,196,6.0,25.0,77,0.00,,,0.06,1.000000,,2013-03-21 04:02:00,
2013-03-20 21:23:00,31.0,25.0,-100.00,SSW,196,6.0,25.0,77,0.00,,,0.06,1.000000,,2013-03-21 04:23:00,
2013-03-20 21:33:00,31.0,25.0,-100.00,SSW,196,6.0,25.0,77,0.00,,,0.06,1.000000,,2013-03-21 04:33:00,
2013-03-20 21:43:00,31.0,25.0,-100.00,SSW,196,6.0,25.0,77,0.00,,,0.06,1.000000,,2013-03-21 04:43:00,
2013-03-20 21:53:00,31.0,25.0,-100.00,SSW,196,6.0,25.0,77,0.00,,,0.06,1.000000,,2013-03-21 04:53:00,
2013-03-20 22:02:00,32.0,25.0,-100.00,SW,226,8.0,13.0,76,0.00,,,0.06,1.000000,,2013-03-21 05:02:00,
2013-03-20 22:22:00,32.0,25.0,-100.00,SW,226,8.0,13.0,76,0.00,,,0.06,1.000000,,2013-03-21 05:22:00,
2013-03-20 22:33:00,32.0,25.0,-100.00,SW,226,8.0,13.0,76,0.00,,,0.06,1.000000,,2013-03-21 05:33:00,
2013-03-20 22:44:00,32.0,25.0,-100.00,SW,226,8.0,13.0,76,0.00,,,0.06,1.000000,,2013-03-21 05:44:00,
2013-03-20 22:52:00,32.0,25.0,-100.00,SW,226,8.0,13.0,76,0.00,,,0.06,1.000000,,2013-03-21 05:52:00,
2013-03-20 23:23:00,31.0,24.0,-100.00,SSW,192,8.0,17.0,74,0.00,,,0.05,1.000000,,2013-03-21 06:23:00,
2013-03-20 23:32:00,31.0,24.0,-100.00,SSW,192,8.0,17.0,74,0.00,,,0.05,1.000000,,2013-03-21 06:32:00,
2013-03-20 23:42:00,31.0,24.0,-100.00,SSW,192,8.0,17.0,74,0.00,,,0.05,1.000000,,2013-03-21 06:42:00,
2013-03-20 23:52:00,31.0,24.0,-100.00,SSW,192,8.0,17.0,74,0.00,,,0.05,1.000000,,2013-03-21 06:52:00,